This is the latest recevied weather packets stored in our database for station/object W4ZHA. If no packets are shown the sender has not sent any weather packets the latest 10 day(s).
| Time | Temp. | Humidity | Pressure | Rain* | Wind** | Luminosity | Snow |
|---|---|---|---|---|---|---|---|
| 1787761928 | 28.89° C | 58% | 1017.9 hPa | 0 mm | - | 420 W/m² | - |
| 1787761623 | 29.44° C | 57% | 1017.9 hPa | 0 mm | - | 385 W/m² | - |
| 1787761319 | 28.89° C | 57% | 1017.9 hPa | 0 mm | - | 360 W/m² | - |
| 1787761017 | 27.78° C | 58% | 1017.9 hPa | 0 mm | - | 321 W/m² | - |
| 1787760716 | 28.33° C | 58% | 1017.6 hPa | 0 mm | - | 246 W/m² | - |
| 1787760411 | 27.78° C | 58% | 1017.9 hPa | 0 mm | - | 166 W/m² | - |
| 1787760106 | 27.78° C | 56% | 1017.9 hPa | 0 mm | - | 172 W/m² | - |
| 1787759803 | 27.78° C | 58% | 1017.9 hPa | 0 mm | - | 193 W/m² | - |
| 1787759498 | 28.33° C | 58% | 1017.9 hPa | 0 mm | - | 220 W/m² | - |
| 1787759193 | 27.22° C | 59% | 1017.9 hPa | 0 mm | - | 169 W/m² | - |
| 1787758892 | 27.22° C | 59% | 1017.9 hPa | 0 mm | - | 116 W/m² | - |
| 1787758588 | 26.67° C | 60% | 1017.9 hPa | 0 mm | - | 78 W/m² | - |
| 1787758287 | 26.67° C | 60% | 1018.3 hPa | 0 mm | - | 71 W/m² | - |
| 1787757982 | 26.67° C | 60% | 1018.6 hPa | 0 mm | - | 66 W/m² | - |
| 1787757679 | 26.11° C | 59% | 1018.3 hPa | 0 mm | - | 62 W/m² | - |
| 1787757378 | 26.11° C | 58% | 1018.3 hPa | 0 mm | - | 71 W/m² | - |
| 1787757073 | 26.11° C | 59% | 1018.6 hPa | 0 mm | - | 64 W/m² | - |
| 1787756767 | 26.11° C | 62% | 1018.6 hPa | 0 mm | - | 75 W/m² | - |
| 1787756463 | 26.11° C | 64% | 1018.6 hPa | 0 mm | - | 59 W/m² | - |
| 1787756161 | 26.11° C | 62% | 1019 hPa | 0 mm | - | 67 W/m² | - |
| 1787755856 | 26.11° C | 64% | 1019 hPa | 0 mm | - | 63 W/m² | - |
| 1787755555 | 25° C | 65% | 1019 hPa | 0 mm | - | 51 W/m² | - |
| 1787755250 | 25° C | 65% | 1019 hPa | 0 mm | - | 49 W/m² | - |
| 1787754949 | 25° C | 65% | 1019 hPa | 0 mm | - | 48 W/m² | - |
| 1787754644 | 25° C | 64% | 1019 hPa | 0 mm | - | 46 W/m² | - |
* Rain latest hour (hover to see other rain measurements)
** Current wind speed in m/s (hover to see current wind gust speed)